Wind_Speed
104 104 102 102 101 98 96 94 93 90 89 89 88 86 85 85 82 78 74 70 67 63 58 53 46 42 42 38 41 39 35 33 32 32 31 27 27 32 31 33 34 31 30 28
104 107 107 105 106 105 103 99 97 95 93 90 89 89 88 87 85 84 82 77 73 71 67 62 57 53 47 42 44 45 37 36 33 35 34 32 29 29 32 33 34 33 33 31
101 105 106 107 106 106 106 106 104 101 98 95 93 91 90 90 89 86 85 83 80 76 74 71 65 59 54 50 52 50 51 40 36 38 37 37 30 28 30 31 29 33 33 32
99 103 105 106 107 108 107 107 106 105 103 100 96 96 96 93 92 90 88 87 85 82 79 77 73 68 62 57 58 56 54 48 50 43 41 39 34 32 32 31 30 31 32 33
87 98 102 104 108 110 111 110 109 109 108 106 104 101 99 97 96 95 92 90 89 87 85 83 80 75 71 66 66 67 61 60 59 51 45 42 44 39 36 33 31 30 28 28
79 85 92 101 107 109 110 111 112 112 111 110 109 108 105 103 100 98 97 95 94 92 90 88 86 83 79 75 72 71 69 63 62 54 51 50 48 45 39 35 31 27 28 29
77 80 82 86 95 104 110 111 113 114 114 113 113 110 111 110 108 105 103 100 98 97 96 93 91 89 85 83 79 74 73 71 69 65 58 58 55 50 46 41 36 33 32 31
75 78 81 83 86 89 94 101 109 115 117 118 118 118 117 116 114 112 110 108 104 101 101 100 96 94 91 89 86 82 77 77 73 73 64 62 59 56 50 47 42 40 35 32
69 73 78 82 84 85 85 89 94 100 108 116 119 120 120 121 120 117 116 115 114 109 105 104 104 100 98 95 90 87 84 79 80 76 72 67 64 62 55 53 48 41 39 38
63 68 72 75 79 81 84 88 92 95 97 101 109 118 122 122 123 124 121 120 119 117 114 111 108 106 104 101 97 92 89 86 83 84 80 76 70 67 60 55 54 50 45 45
56 62 67 71 74 78 80 83 86 90 94 95 97 102 110 120 125 124 124 125 123 122 120 119 117 112 109 108 103 98 95 92 89 88 86 82 77 74 67 62 58 54 51 48
52 53 57 63 67 72 74 76 77 80 83 87 92 98 100 104 109 117 126 126 125 127 126 125 123 120 118 113 108 105 102 98 95 92 90 89 85 79 73 67 66 63 58 53
45 48 52 56 57 61 65 68 71 73 76 79 82 86 90 95 99 103 109 117 125 128 126 130 129 123 122 121 116 109 107 105 102 97 97 94 92 88 84 75 71 68 65 60
44 43 45 48 51 57 59 59 62 67 69 71 73 76 79 83 85 91 99 106 111 116 125 129 131 129 126 124 121 118 112 109 107 105 101 100 97 96 93 88 80 76 72 67
47 45 42 44 46 48 54 57 59 60 62 63 63 64 68 74 75 77 83 94 103 108 111 120 128 129 129 127 122 121 119 115 112 108 107 105 103 99 100 96 89 86 78 75
37 36 39 40 41 42 44 48 51 52 53 55 58 61 62 65 68 72 72 77 89 100 105 107 114 126 128 126 122 120 121 121 119 114 110 109 107 102 101 102 99 95 90 86
33 34 33 33 34 35 39 44 50 52 50 52 53 56 58 60 64 67 70 68 76 88 96 101 104 111 123 130 123 118 120 123 125 122 116 112 110 107 104 99 101 100 95 94
29 29 30 31 31 32 36 40 45 47 47 45 49 50 52 55 58 64 66 63 67 76 84 93 99 102 108 119 127 123 117 122 125 126 123 119 114 112 108 107 106 105 102 98
29 30 31 31 32 33 31 34 41 42 44 43 45 47 48 50 53 58 60 61 63 68 76 84 91 97 101 108 119 123 119 118 122 126 127 126 121 116 113 111 110 109 104 102
26 27 27 29 32 35 34 35 36 35 38 39 40 43 46 46 49 53 56 57 60 63 69 77 84 90 96 101 107 114 119 116 117 123 126 128 125 121 117 114 112 110 108 105
26 26 26 26 28 32 31 32 34 31 32 35 37 40 41 45 49 50 51 53 55 60 63 68 74 79 86 93 100 105 110 113 115 118 124 126 126 124 121 117 114 114 111 109
27 27 26 26 23 25 28 30 33 32 33 34 36 37 40 45 48 47 48 50 51 55 58 62 66 70 75 82 87 89 93 103 112 117 120 123 125 126 125 122 119 115 114 111
27 28 29 29 26 24 22 26 30 34 32 32 34 34 36 41 43 44 46 47 48 50 54 56 57 61 66 70 74 77 85 92 103 112 116 120 123 123 123 125 121 121 116 114
29 29 27 26 25 22 18 23 26 31 30 30 33 32 33 37 39 38 40 41 43 45 47 49 50 53 56 59 63 69 76 86 93 102 111 115 118 118 121 123 124 122 121 120
28 27 28 25 23 24 20 20 25 24 26 28 29 30 32 35 38 35 37 38 37 36 38 40 39 41 44 51 55 60 69 75 83 92 98 105 112 116 117 121 124 125 123 124
25 25 24 22 18 18 19 19 23 21 25 25 25 28 31 33 34 33 33 32 31 30 32 33 34 35 40 45 51 55 60 62 68 78 88 97 104 114 116 117 122 127 127 128
25 22 20 18 16 14 14 15 19 20 21 21 23 26 28 30 32 30 30 27 24 25 27 29 30 33 38 43 47 51 53 56 64 70 81 94 104 110 116 119 119 124 127 129
Wind_Direction
219 220 221 223 226 227 228 229 229 227 227 227 228 229 232 233 233 233 233 233 233 232 235 235 229 227 226 229 226 227 235 232 236 235 236 236 241 239 233 231 233 234 241 248
221 221 221 222 224 226 227 227 229 228 227 227 228 228 229 232 232 233 234 234 233 232 231 234 233 231 230 225 228 232 234 234 236 237 236 235 236 239 237 235 231 232 234 239
224 224 224 225 226 228 229 228 228 229 228 227 227 228 228 228 231 232 231 232 232 233 231 233 233 232 230 223 222 227 227 229 248 234 237 236 234 238 239 237 241 234 232 234
227 226 226 227 228 229 229 231 232 232 231 230 229 229 229 229 228 229 231 230 231 230 231 233 234 232 230 225 223 222 230 226 236 235 231 234 234 234 234 233 236 238 235 234
229 229 229 230 230 230 231 231 231 232 233 233 232 230 230 231 231 229 228 231 230 230 229 230 232 233 231 227 224 225 227 231 234 231 230 228 233 228 226 223 226 232 229 233
233 233 232 232 233 233 232 233 233 233 234 234 234 233 232 232 231 233 231 228 231 232 230 229 230 231 232 230 227 225 227 230 231 233 232 231 226 227 224 221 220 221 226 225
237 237 236 235 236 236 236 235 235 236 236 235 235 235 235 233 232 232 232 231 229 231 233 230 229 231 231 231 230 226 225 227 230 231 229 229 226 223 222 220 218 222 226 229
239 240 239 237 237 237 238 239 239 238 237 236 236 235 235 235 233 232 232 233 231 228 230 233 231 229 231 231 230 228 225 224 229 232 228 229 229 223 220 221 221 223 224 228
241 242 241 241 239 237 237 238 238 238 238 238 239 238 237 236 235 234 233 232 232 231 228 229 232 231 229 230 230 228 227 224 225 230 229 229 231 226 220 219 221 224 224 226
240 241 242 243 243 240 237 236 236 237 237 237 237 238 238 237 236 236 234 233 233 232 231 229 228 229 230 230 230 229 228 226 223 227 228 228 229 227 224 223 224 221 223 227
245 245 244 243 243 243 242 239 237 237 237 237 237 237 237 239 238 237 236 234 233 233 232 231 230 228 228 229 230 229 228 227 225 223 227 229 228 228 226 225 225 222 222 227
248 250 250 249 249 248 247 247 246 243 241 239 238 237 237 237 237 237 238 236 234 232 232 232 231 229 226 227 227 229 229 228 228 224 224 226 228 228 227 227 225 227 228 228
251 249 251 250 250 251 251 251 249 248 247 245 243 241 239 239 238 236 237 237 235 233 232 232 232 230 229 226 226 226 227 229 228 227 225 224 226 228 229 230 229 227 228 226
257 256 251 250 251 250 249 247 246 245 244 244 243 242 243 242 238 235 235 236 237 234 232 231 231 231 230 227 225 225 225 227 228 229 228 225 224 226 229 231 232 229 227 227
258 260 258 255 252 251 250 249 250 249 247 245 244 242 240 243 242 238 236 234 235 235 233 230 230 230 231 230 226 223 224 225 226 227 228 228 227 224 227 229 230 230 225 226
261 263 261 260 259 255 254 253 252 250 249 246 244 242 240 240 241 242 237 234 234 234 234 231 229 229 230 231 229 224 221 223 226 226 227 228 229 227 226 227 228 228 227 227
269 265 260 255 251 249 247 247 248 248 245 244 242 240 239 237 238 240 238 235 234 234 232 232 230 227 228 230 230 227 222 221 223 225 225 227 228 229 227 228 226 227 229 231
280 277 274 268 261 254 249 249 249 250 249 243 240 240 238 234 235 238 239 236 234 232 232 232 231 229 227 227 228 228 224 222 221 222 224 226 227 227 227 227 227 228 230 233
280 279 275 274 271 266 260 256 252 250 251 245 239 238 236 233 234 234 236 237 235 233 230 231 231 230 227 227 227 226 225 223 221 221 222 225 226 226 227 227 228 230 232 233
276 273 274 270 267 267 263 259 256 249 246 245 241 238 235 231 233 234 235 236 237 234 231 231 231 231 229 227 227 227 226 223 221 221 221 223 225 226 226 227 228 229 229 233
292 287 282 273 262 260 262 258 258 253 247 245 241 236 233 229 231 234 236 234 235 237 236 232 233 233 233 231 230 228 227 224 221 221 221 223 224 225 227 227 229 229 229 230
298 296 294 289 280 270 264 258 258 257 251 246 241 235 230 227 231 232 233 236 236 237 238 235 233 233 234 234 233 230 228 227 223 222 221 221 222 223 226 228 228 230 230 230
301 299 297 294 291 284 276 259 253 251 250 245 241 235 230 227 229 230 233 234 234 237 238 238 235 233 233 235 234 230 226 225 224 222 221 220 221 223 224 229 230 231 232 232
307 303 299 296 294 287 272 263 251 247 247 239 236 235 231 230 230 229 234 236 235 236 238 240 238 233 232 231 231 230 228 225 223 222 220 218 219 220 223 225 231 232 233 234
310 307 304 301 294 288 279 260 256 246 242 239 233 229 228 227 229 229 231 235 236 237 236 234 235 235 231 227 224 226 228 225 223 221 220 220 218 218 220 222 226 231 234 236
317 315 310 304 294 283 278 264 255 246 240 236 231 225 224 225 225 226 229 233 236 234 232 230 224 221 223 221 221 222 225 223 223 222 220 220 219 219 219 221 223 227 231 234
327 325 317 308 303 293 271 261 253 244 237 233 229 223 223 225 219 223 226 230 231 230 231 231 223 216 217 218 216 216 217 215 218 218 220 218 215 217 219 220 221 223 228 230
Height
10665 10679 10692 10704 10717 10729 10742 10756 10768 10786 10797 10807 10816 10827 10833 10841 10851 10860 10869 10879 10888 10897 10904 10911 10918 10922 10928 10934 10940 10946 10950 10954 10956 10960 10964 10969 10973 10975 10978 10982 10986 10990 10996 10998
10643 10654 10667 10681 10690 10703 10716 10732 10744 10759 10773 10786 10796 10805 10814 10822 10831 10841 10852 10863 10872 10882 10890 10897 10904 10910 10917 10924 10931 10937 10940 10945 10950 10954 10958 10961 10964 10968 10972 10974 10978 10982 10987 10991
10627 10639 10652 10665 10676 10687 10699 10708 10722 10733 10749 10762 10774 10783 10793 10802 10811 10821 10833 10842 10853 10864 10874 10882 10890 10897 10905 10911 10918 10925 10930 10935 10942 10946 10950 10955 10957 10961 10964 10968 10972 10975 10979 10983
10608 10620 10633 10648 10655 10665 10679 10689 10702 10715 10728 10741 10755 10763 10771 10781 10791 10801 10811 10823 10833 10845 10855 10865 10874 10882 10891 10899 10904 10912 10919 10925 10930 10935 10940 10946 10951 10953 10956 10960 10964 10967 10971 10975
10592 10602 10617 10626 10635 10644 10655 10669 10680 10690 10702 10717 10730 10739 10751 10762 10772 10782 10794 10803 10813 10823 10835 10845 10855 10865 10874 10882 10889 10897 10905 10911 10916 10924 10930 10935 10940 10942 10945 10951 10955 10959 10963 10968
10576 10586 10597 10606 10613 10623 10634 10647 10658 10668 10679 10692 10703 10715 10731 10740 10751 10761 10774 10785 10793 10802 10814 10825 10835 10845 10855 10865 10873 10882 10891 10898 10904 10911 10920 10924 10928 10934 10939 10943 10947 10952 10956 10959
10557 10566 10577 10587 10593 10602 10610 10627 10631 10643 10654 10666 10677 10690 10698 10710 10723 10737 10746 10760 10774 10783 10789 10803 10816 10825 10834 10843 10853 10866 10875 10884 10889 10895 10903 10910 10917 10923 10930 10934 10938 10943 10947 10952
10538 10545 10552 10559 10568 10579 10587 10597 10607 10615 10623 10632 10643 10655 10664 10675 10691 10707 10720 10732 10746 10760 10770 10779 10793 10804 10813 10821 10833 10845 10857 10867 10874 10881 10889 10898 10905 10911 10919 10925 10930 10933 10937 10943
10519 10523 10527 10532 10541 10552 10562 10569 10576 10583 10592 10604 10614 10625 10636 10646 10659 10675 10689 10703 10714 10729 10743 10753 10766 10779 10789 10798 10812 10823 10835 10848 10858 10864 10874 10883 10891 10898 10905 10913 10919 10923 10928 10932
10500 10503 10506 10511 10516 10522 10531 10539 10545 10552 10561 10571 10580 10590 10599 10609 10624 10637 10655 10671 10684 10698 10714 10725 10737 10751 10765 10776 10788 10802 10814 10826 10837 10847 10856 10867 10877 10886 10892 10900 10906 10912 10918 10920
10485 10485 10486 10489 10493 10497 10503 10510 10519 10526 10533 10544 10553 10559 10568 10575 10589 10602 10616 10634 10650 10666 10680 10693 10706 10724 10736 10747 10763 10777 10791 10803 10815 10827 10837 10849 10860 10870 10878 10887 10894 10901 10906 10912
10469 10471 10472 10474 10476 10479 10483 10489 10497 10502 10509 10516 10522 10528 10537 10543 10554 10566 10576 10593 10611 10630 10644 10655 10670 10689 10705 10718 10735 10752 10767 10779 10792 10806 10817 10828 10840 10852 10862 10871 10880 10887 10893 10901
10454 10456 10456 10458 10460 10460 10465 10471 10475 10480 10485 10490 10497 10502 10508 10515 10524 10536 10544 10553 10570 10591 10608 10621 10633 10655 10672 10690 10708 10725 10741 10755 10768 10783 10796 10808 10820 10832 10843 10853 10864 10871 10879 10886
10440 10440 10441 10441 10443 10443 10445 10448 10450 10453 10459 10464 10470 10478 10482 10487 10496 10505 10516 10525 10533 10549 10566 10581 10597 10617 10636 10654 10679 10698 10714 10728 10744 10757 10772 10785 10799 10811 10822 10834 10846 10855 10861 10870
10425 10425 10426 10426 10427 10427 10428 10430 10431 10435 10439 10444 10451 10457 10462 10465 10471 10478 10486 10497 10505 10515 10528 10544 10563 10582 10600 10616 10645 10669 10688 10702 10714 10732 10746 10760 10775 10789 10802 10811 10823 10833 10843 10852
10412 10412 10411 10411 10411 10411 10412 10413 10416 10419 10422 10425 10429 10434 10440 10444 10448 10453 10462 10471 10479 10487 10499 10513 10529 10548 10566 10582 10609 10637 10659 10675 10687 10703 10720 10736 10748 10766 10779 10789 10801 10812 10822 10831
10400 10399 10397 10396 10396 10396 10396 10396 10395 10398 10402 10404 10408 10412 10418 10422 10427 10431 10438 10449 10455 10462 10474 10487 10500 10517 10532 10550 10574 10600 10626 10644 10658 10674 10691 10708 10724 10740 10756 10768 10780 10792 10800 10807
10385 10385 10383 10383 10383 10382 10382 10381 10380 10382 10385 10388 10391 10394 10400 10404 10409 10414 10418 10430 10436 10442 10452 10463 10473 10489 10505 10521 10540 10563 10589 10611 10628 10647 10663 10681 10696 10712 10729 10745 10757 10769 10778 10787
10373 10371 10371 10370 10369 10367 10367 10367 10366 10369 10370 10372 10374 10378 10382 10387 10392 10397 10402 10409 10417 10424 10433 10440 10450 10462 10478 10493 10508 10530 10555 10579 10600 10619 10636 10650 10667 10685 10702 10719 10734 10744 10754 10764
10362 10360 10358 10359 10358 10355 10355 10354 10353 10354 10356 10358 10361 10365 10368 10372 10377 10383 10388 10394 10400 10406 10413 10420 10429 10439 10452 10468 10484 10502 10521 10546 10568 10590 10609 10623 10641 10659 10676 10691 10707 10720 10731 10741
10351 10349 10346 10344 10345 10342 10341 10341 10339 10340 10342 10345 10348 10352 10355 10358 10363 10368 10374 10380 10386 10390 10397 10407 10414 10423 10433 10444 10459 10475 10493 10517 10541 10560 10578 10597 10618 10634 10650 10667 10681 10695 10707 10718
10338 10335 10333 10331 10331 10330 10328 10326 10325 10327 10327 10330 10334 10339 10344 10347 10350 10356 10360 10365 10372 10377 10383 10390 10398 10406 10413 10422 10436 10457 10476 10492 10510 10529 10550 10571 10589 10608 10624 10638 10654 10669 10681 10694
10328 10324 10321 10318 10317 10317 10316 10314 10313 10314 10316 10319 10322 10327 10332 10336 10340 10344 10349 10354 10360 10364 10368 10375 10383 10390 10398 10406 10418 10434 10450 10465 10480 10501 10522 10543 10562 10583 10603 10615 10630 10641 10655 10668
10316 10313 10310 10308 10305 10305 10304 10303 10303 10303 10306 10308 10310 10316 10321 10326 10330 10335 10339 10343 10349 10353 10358 10364 10370 10377 10383 10391 10400 10412 10424 10438 10454 10473 10493 10514 10538 10561 10578 10594 10602 10616 10627 10637
10307 10303 10300 10297 10296 10294 10293 10292 10291 10293 10295 10297 10301 10305 10310 10315 10320 10325 10329 10333 10339 10344 10349 10353 10360 10365 10371 10377 10384 10393 10402 10417 10436 10453 10474 10496 10514 10534 10553 10568 10579 10591 10602 10610
10299 10295 10291 10288 10287 10286 10283 10283 10283 10285 10285 10288 10292 10295 10299 10304 10312 10317 10321 10326 10331 10335 10339 10343 10349 10354 10359 10365 10372 10381 10392 10409 10422 10437 10455 10473 10494 10507 10525 10542 10557 10566 10576 10584
10291 10288 10283 10280 10279 10278 10276 10275 10275 10276 10277 10281 10284 10286 10291 10297 10304 10310 10314 10318 10323 10327 10331 10335 10339 10344 10348 10354 10361 10370 10381 10394 10401 10417 10432 10442 10457 10477 10493 10510 10526 10538 10550 10561